Wind_Speed
11 11 11 12 11 11 11 11 12 11 12 12 11 10 11 11 10 9 9 8 8 7 8 8 8 9 9 9 9 9 9 10 10 11 11 11 12 12 12 13 13 13 12
11 12 12 12 12 12 12 12 12 12 12 12 12 12 12 12 12 10 10 9 9 8 8 8 8 9 9 10 10 10 10 11 11 12 12 12 13 14 14 14 14 14 14
12 13 13 13 13 13 13 12 12 12 13 13 13 13 13 13 12 11 11 11 10 10 9 9 9 10 10 11 11 12 12 13 13 13 13 13 14 13 14 15 15 15 16
12 12 13 14 14 13 13 13 12 13 13 14 14 14 14 14 13 13 13 12 11 11 11 10 11 11 12 12 12 12 13 13 14 14 14 14 15 14 14 14 15 16 16
12 12 13 13 13 13 13 13 13 13 13 14 14 15 15 15 14 14 14 14 13 12 12 12 12 12 13 13 13 13 13 13 14 15 15 15 15 15 15 15 16 17 17
12 12 13 13 13 13 13 14 14 13 13 14 14 15 16 16 16 15 15 15 15 14 14 13 13 13 13 13 14 14 14 14 15 15 15 15 16 16 16 15 16 17 18
12 12 12 13 13 13 13 13 14 14 14 14 14 15 16 16 16 15 15 15 15 15 15 14 15 14 14 14 15 15 15 15 16 16 16 16 16 17 17 17 18 17 18
12 12 11 11 12 12 12 12 13 14 14 13 13 14 15 16 16 16 15 15 15 15 15 15 16 16 16 16 16 16 16 15 16 16 16 17 17 18 18 19 19 19 19
10 11 10 10 11 12 12 11 12 13 13 13 13 14 16 16 16 16 15 15 15 15 16 16 17 17 17 17 17 16 16 16 16 16 17 18 18 18 19 20 21 21 21
10 10 10 10 10 11 11 11 12 13 13 14 14 15 16 17 17 17 16 16 16 16 17 17 16 17 17 17 17 18 17 16 17 18 19 19 20 20 21 21 21 22 22
11 10 9 9 10 11 11 11 11 12 14 15 15 16 17 17 18 18 17 17 17 17 17 17 17 17 17 17 18 18 18 18 18 19 20 20 21 21 21 22 22 23 23
10 10 10 11 11 10 10 11 12 13 14 15 16 17 17 18 19 19 18 17 17 17 17 16 17 17 17 18 18 18 19 19 20 20 21 21 21 21 21 22 23 24 25
10 10 11 11 12 11 11 11 11 12 13 14 15 16 17 18 18 19 18 18 17 17 17 17 17 17 18 18 19 20 20 21 21 21 22 22 23 22 22 23 25 25 25
11 11 12 12 12 12 12 12 13 12 13 13 14 15 16 17 18 18 18 18 18 17 17 18 18 18 19 20 20 21 21 22 23 23 23 24 24 25 25 24 25 24 25
11 11 11 12 13 13 12 13 12 13 13 13 14 14 14 15 15 16 17 18 18 18 18 19 19 20 20 21 21 22 22 23 24 24 24 24 24 25 26 26 26 26 26
10 10 11 12 12 12 12 12 12 12 13 13 12 12 13 14 15 16 16 17 17 18 18 20 20 21 21 22 22 22 22 23 23 24 24 24 24 25 26 27 26 26 27
11 10 10 10 10 10 11 11 11 11 12 13 13 13 13 15 15 15 16 17 17 18 18 19 19 20 21 23 22 22 23 23 23 24 24 24 25 25 25 26 26 27 27
10 10 10 9 9 9 10 11 11 11 11 12 13 13 14 14 15 15 16 17 17 18 18 19 20 20 22 23 22 22 22 23 23 23 24 25 25 25 25 26 26 27 28
11 11 10 10 10 10 10 10 11 11 12 12 12 13 13 14 14 15 16 17 17 18 18 19 20 20 21 21 22 22 22 23 23 24 24 24 24 24 25 25 26 27 28
9 9 10 10 11 10 10 11 11 12 13 14 14 14 14 14 14 15 16 16 16 17 18 19 19 20 20 21 21 22 23 23 24 24 24 25 25 25 25 26 27 27 28
9 9 9 9 10 10 11 12 12 12 13 14 14 14 14 14 15 15 16 17 17 18 18 19 20 21 21 22 23 23 24 24 25 25 25 26 26 26 26 26 27 27 28
11 11 11 11 11 11 12 12 12 13 13 13 14 15 15 16 16 16 17 18 18 19 19 20 21 21 22 23 23 24 25 25 26 26 26 26 26 26 26 26 26 26 26
13 13 13 13 13 13 13 13 14 14 14 14 15 16 16 17 17 18 19 19 19 20 21 22 23 23 23 24 24 25 25 26 26 26 25 25 26 25 25 25 25 26 26
15 15 15 15 15 15 15 15 15 15 16 16 16 17 18 18 19 19 19 20 20 22 23 24 24 24 24 24 25 25 26 26 26 26 26 26 25 25 25 25 25 25 26
17 17 17 17 17 17 17 17 18 19 18 18 18 19 19 20 20 20 20 21 21 22 23 24 24 24 24 25 26 26 25 25 25 26 26 26 26 26 26 26 25 25 25
20 20 19 18 18 19 19 19 20 20 20 20 20 21 20 20 21 21 21 21 21 22 22 23 24 24 24 24 24 24 25 25 26 26 26 26 26 26 26 26 26 26 26
Wind_Direction
256 256 256 251 248 249 249 248 245 244 243 240 239 237 240 242 243 249 247 246 250 251 256 260 255 250 251 248 245 244 245 252 250 250 252 252 252 251 245 243 241 241 241
259 257 253 253 251 250 251 248 244 243 244 242 245 243 243 243 243 246 246 247 248 250 253 257 256 258 255 252 249 250 252 256 253 256 256 255 256 252 247 245 245 242 241
261 256 252 252 251 251 249 244 244 243 245 246 246 243 244 244 240 241 243 245 249 254 255 253 252 253 253 252 252 252 252 252 254 256 258 258 257 256 253 248 246 243 242
262 258 253 252 251 250 247 246 245 244 245 245 244 243 244 243 240 242 242 243 248 253 256 257 256 253 255 258 258 258 257 257 256 255 256 260 260 258 255 252 248 245 245
261 261 256 252 251 251 250 248 248 247 248 246 245 244 242 241 241 243 243 245 250 255 258 258 259 259 260 262 262 263 261 260 257 257 257 258 260 260 257 255 253 252 250
266 264 257 252 252 252 252 248 247 246 247 245 245 247 245 240 241 243 244 246 249 255 257 257 261 263 262 264 264 261 261 262 261 261 259 259 263 260 259 259 257 256 253
271 268 259 252 252 251 248 242 243 245 246 244 244 246 244 240 240 241 244 247 251 254 258 259 260 262 264 263 263 261 260 262 262 262 258 259 263 262 261 261 262 259 256
268 267 260 253 256 250 243 242 243 243 244 243 243 245 242 240 241 243 248 251 253 256 260 262 261 260 263 263 265 263 260 262 263 261 258 259 262 264 262 261 262 262 260
264 263 258 254 252 249 249 248 245 241 241 244 245 245 243 243 244 247 250 252 254 257 260 263 262 261 262 263 262 263 260 261 263 263 262 262 263 265 264 262 261 261 261
268 263 254 250 251 248 250 250 246 245 242 245 249 249 245 244 247 250 250 252 255 260 261 262 263 264 263 263 263 263 261 264 265 267 267 269 267 265 264 264 262 261 262
263 257 251 250 253 252 251 250 246 246 245 247 248 248 249 248 249 252 252 255 258 261 261 263 262 265 265 266 265 263 265 267 269 270 268 269 267 267 264 264 264 262 262
260 256 255 252 254 255 253 252 248 248 249 249 250 251 251 250 251 253 255 256 260 262 262 262 262 264 265 267 267 267 269 270 271 270 269 268 267 266 266 265 265 264 263
258 255 254 253 254 255 256 254 252 251 252 251 254 255 253 251 252 253 253 256 259 259 261 263 264 266 267 268 271 271 272 272 272 272 270 268 266 266 266 266 266 264 263
258 256 254 250 255 258 259 257 255 257 255 253 256 257 259 257 256 255 254 255 257 259 260 263 266 268 269 271 274 273 274 274 273 273 272 271 269 268 266 267 267 265 264
260 259 256 253 255 257 258 260 263 260 256 256 259 259 261 259 256 257 256 257 259 262 264 266 269 269 269 273 276 276 275 275 275 274 274 274 273 270 268 267 267 266 266
264 259 257 254 254 256 259 260 265 264 264 262 259 258 260 261 259 261 259 258 258 261 266 270 271 271 271 275 277 278 277 278 278 277 275 274 275 274 272 269 268 268 268
263 258 254 250 252 256 258 259 260 260 262 264 261 263 265 266 263 262 261 262 262 263 268 271 272 272 274 277 278 278 278 278 278 276 275 275 275 275 274 272 271 269 268
261 257 258 253 255 259 260 259 259 260 261 264 263 265 267 268 265 266 267 267 267 268 271 273 274 275 275 277 279 279 278 279 279 277 276 276 276 275 275 275 274 272 270
259 257 256 256 259 260 261 263 261 260 260 262 266 268 270 272 274 273 270 270 271 272 275 275 277 279 280 280 281 279 278 280 280 279 278 278 277 277 275 276 276 276 275
257 257 257 257 259 262 264 266 266 262 260 263 266 269 272 276 278 279 278 276 275 274 276 276 279 280 280 281 282 281 279 280 280 280 279 279 279 279 277 279 279 278 277
265 267 266 264 265 269 274 273 272 269 268 268 268 270 272 275 278 280 280 277 275 276 278 278 279 280 281 280 281 282 282 281 281 282 282 282 282 281 280 280 280 278 276
265 269 272 271 271 275 277 278 275 274 273 273 275 274 274 275 277 278 279 278 276 278 280 279 281 283 283 282 282 283 283 283 283 283 283 283 283 283 282 281 280 278 276
264 267 270 271 271 273 275 277 277 274 275 279 282 280 279 279 279 280 279 280 281 281 281 283 283 283 284 284 283 283 283 283 283 284 284 284 285 286 286 284 282 280 278
266 268 270 270 270 271 271 274 278 277 278 279 281 281 281 281 282 281 280 284 285 284 283 283 284 283 284 285 285 284 284 283 283 284 285 285 284 283 284 284 285 283 280
265 268 269 269 270 271 271 274 276 278 278 279 280 281 282 283 283 284 284 285 285 285 285 284 284 285 285 285 285 284 283 282 283 283 284 284 284 283 283 283 284 285 284
265 266 267 268 269 271 272 274 275 277 279 279 280 281 281 282 284 284 283 284 286 286 286 286 286 286 286 285 284 284 285 284 285 286 284 283 282 283 283 282 283 284 284
Height
5860 5861 5861 5862 5862 5862 5863 5863 5864 5864 5864 5865 5866 5867 5868 5869 5870 5871 5872 5873 5874 5874 5874 5875 5875 5876 5876 5876 5877 5878 5878 5879 5879 5880 5880 5881 5881 5881 5882 5882 5883 5884 5884
5857 5858 5859 5859 5859 5860 5860 5861 5861 5861 5862 5863 5864 5865 5866 5867 5868 5869 5870 5871 5871 5872 5872 5873 5873 5873 5874 5874 5875 5875 5876 5876 5877 5877 5877 5878 5878 5878 5879 5879 5880 5881 5882
5855 5855 5856 5856 5856 5857 5857 5857 5858 5859 5859 5860 5861 5862 5863 5864 5865 5866 5867 5868 5869 5870 5870 5870 5871 5871 5871 5872 5872 5873 5873 5874 5874 5874 5875 5875 5875 5875 5876 5876 5877 5878 5878
5852 5852 5852 5853 5853 5853 5854 5854 5855 5856 5856 5857 5858 5859 5860 5861 5863 5864 5865 5866 5867 5867 5868 5868 5868 5869 5869 5869 5870 5870 5870 5871 5871 5871 5872 5872 5872 5872 5872 5873 5873 5874 5875
5849 5849 5849 5849 5850 5850 5851 5851 5852 5853 5853 5854 5855 5856 5857 5858 5860 5861 5862 5863 5864 5864 5865 5865 5866 5866 5866 5866 5867 5867 5867 5867 5868 5868 5868 5868 5868 5869 5869 5869 5870 5870 5871
5846 5846 5846 5846 5846 5846 5847 5848 5849 5850 5850 5851 5852 5853 5854 5855 5857 5858 5859 5860 5861 5861 5862 5862 5863 5863 5863 5863 5863 5863 5863 5864 5864 5864 5864 5864 5864 5865 5865 5865 5866 5866 5867
5843 5842 5843 5843 5843 5843 5844 5845 5846 5846 5847 5848 5848 5849 5850 5852 5853 5855 5855 5856 5857 5858 5859 5859 5859 5860 5860 5860 5859 5860 5860 5860 5860 5860 5860 5860 5860 5860 5861 5861 5862 5862 5863
5839 5839 5839 5840 5840 5840 5841 5842 5842 5843 5844 5845 5845 5846 5848 5849 5850 5851 5852 5853 5854 5854 5855 5856 5856 5856 5856 5856 5856 5856 5856 5856 5856 5856 5856 5856 5856 5856 5856 5857 5857 5858 5858
5836 5836 5836 5836 5837 5838 5838 5839 5840 5840 5841 5842 5842 5843 5845 5846 5847 5847 5848 5849 5850 5851 5851 5852 5852 5852 5852 5852 5852 5852 5852 5852 5852 5852 5852 5852 5852 5852 5852 5852 5852 5853 5853
5833 5833 5833 5834 5834 5835 5835 5836 5837 5837 5838 5839 5839 5840 5842 5843 5844 5844 5845 5846 5847 5847 5847 5848 5848 5847 5847 5847 5847 5848 5848 5848 5848 5848 5847 5847 5847 5847 5847 5847 5847 5848 5848
5831 5831 5831 5831 5831 5832 5833 5833 5833 5834 5835 5836 5836 5837 5838 5839 5840 5841 5842 5842 5843 5843 5843 5843 5843 5843 5843 5843 5843 5843 5843 5843 5843 5843 5843 5842 5842 5841 5841 5841 5842 5842 5843
5828 5828 5828 5829 5829 5830 5830 5830 5831 5831 5832 5832 5833 5833 5834 5835 5836 5837 5838 5838 5838 5839 5839 5839 5839 5839 5839 5839 5839 5839 5839 5838 5838 5838 5837 5837 5836 5836 5835 5836 5836 5836 5836
5825 5826 5826 5826 5827 5827 5827 5828 5828 5828 5828 5829 5829 5830 5830 5831 5832 5833 5833 5834 5834 5834 5834 5835 5834 5834 5834 5834 5834 5834 5834 5833 5833 5832 5832 5831 5831 5830 5830 5830 5830 5830 5830
5823 5823 5823 5824 5824 5824 5825 5825 5825 5825 5825 5825 5826 5826 5826 5827 5827 5828 5829 5830 5830 5830 5830 5830 5830 5830 5829 5829 5829 5829 5828 5828 5827 5827 5826 5826 5825 5824 5824 5824 5824 5823 5823
5820 5820 5820 5821 5821 5822 5822 5822 5822 5822 5822 5822 5822 5822 5823 5823 5823 5824 5825 5825 5826 5826 5826 5825 5825 5825 5824 5824 5824 5824 5823 5822 5821 5821 5820 5820 5819 5818 5817 5817 5817 5817 5817
5817 5817 5818 5818 5818 5819 5819 5819 5819 5819 5819 5819 5819 5819 5820 5820 5820 5820 5820 5821 5821 5821 5821 5821 5820 5820 5819 5819 5818 5818 5817 5816 5815 5815 5814 5813 5812 5811 5810 5810 5810 5810 5809
5815 5815 5815 5815 5816 5816 5816 5816 5816 5816 5817 5816 5816 5816 5816 5816 5816 5816 5816 5816 5816 5816 5816 5815 5815 5814 5814 5813 5813 5812 5811 5810 5810 5809 5808 5807 5806 5805 5804 5803 5803 5802 5802
5813 5813 5813 5813 5813 5813 5813 5814 5814 5814 5814 5814 5814 5814 5814 5813 5813 5812 5812 5812 5812 5811 5811 5811 5810 5809 5809 5808 5807 5806 5806 5804 5804 5803 5802 5801 5800 5799 5798 5797 5796 5795 5794
5810 5810 5810 5811 5811 5811 5811 5811 5811 5811 5811 5811 5811 5810 5810 5810 5809 5809 5808 5808 5807 5807 5807 5806 5805 5804 5803 5802 5801 5801 5800 5799 5797 5796 5795 5794 5793 5792 5791 5790 5789 5788 5787
5808 5808 5808 5808 5808 5808 5808 5808 5808 5808 5808 5808 5807 5807 5807 5806 5806 5805 5804 5804 5803 5803 5802 5801 5800 5799 5798 5797 5796 5795 5794 5793 5791 5790 5789 5788 5787 5786 5785 5784 5783 5781 5780
5806 5806 5806 5806 5806 5805 5805 5805 5805 5805 5805 5804 5804 5803 5803 5802 5802 5801 5800 5799 5799 5798 5797 5796 5795 5794 5793 5792 5791 5789 5788 5787 5785 5784 5783 5781 5780 5779 5777 5776 5775 5774 5773
5803 5803 5803 5803 5803 5803 5802 5802 5802 5801 5801 5801 5800 5799 5799 5798 5797 5797 5796 5795 5794 5793 5792 5791 5790 5788 5787 5786 5785 5783 5782 5780 5779 5778 5776 5774 5773 5772 5770 5769 5768 5767 5765
5800 5800 5800 5800 5799 5799 5799 5798 5798 5797 5797 5797 5796 5795 5794 5794 5793 5792 5791 5790 5789 5787 5786 5785 5784 5782 5781 5780 5778 5777 5775 5774 5772 5771 5769 5768 5766 5765 5763 5762 5761 5760 5758
5797 5797 5796 5796 5796 5795 5795 5795 5794 5793 5793 5792 5792 5791 5790 5789 5788 5787 5786 5785 5783 5782 5780 5779 5778 5776 5775 5773 5772 5770 5768 5767 5765 5764 5762 5761 5760 5758 5756 5755 5754 5752 5751
5792 5792 5792 5791 5791 5791 5791 5790 5790 5789 5788 5787 5787 5786 5785 5784 5783 5782 5780 5779 5778 5776 5774 5773 5771 5770 5768 5767 5765 5763 5762 5760 5759 5757 5756 5754 5753 5751 5750 5748 5747 5746 5744
5787 5787 5786 5786 5786 5786 5785 5785 5784 5784 5783 5782 5781 5780 5779 5778 5777 5775 5774 5773 5771 5770 5768 5767 5765 5763 5762 5760 5758 5756 5755 5753 5752 5750 5749 5747 5746 5744 5743 5742 5740 5738 5737